SL-8 DEB

Satellite information

Favourite Embed

Satellite Type and Status

DEBRISIN ORBIT

Key statistics

Satellite SL-8 DEB at a glance.

Uptime

12626

Days in orbit

Revolutions

≈ 12.1

Per day

Orbit

LEO

Low Earth Orbit

Inclination

74.1

Latest

Satellite identification and parameters

Extended collection of information and parameters for SL-8 DEB.

Object identification

Identified? True

Debris? True

Object name: SL-8 DEB

International designator: 1991-009BL

Object number (NORAD): 21253

Object ID (CCSDS): 21253

Country: COMMONWEALTH OF INDEPENDENT STATES (CIS)

Current information (Y/N): Y

RCS size: MEDIUM

Orbital parameters

Period: 118.557 minutes

Inclination: 74.1124 deg

SMA: 7994.262 km

Apoapsis: 1734.263 km

Periapsis: 1497.99 km

RAAN: 57.2692 deg

Eccentricy: 0.01477767

Argument of periapsis: 67.4496 deg

Mean anomaly: 58.4721 deg

Mean motion: 12.14605454 rev/day

Mean motion (dot): 0.00000114 rev/day2

B* drag term: 0.0012750556 1/REarth

Two-line elements (TLE)

Creation date: Sept. 7, 2025, 3:09 a.m.

Reference frame: TEME

Reference center: EARTH

Epoch: Sept. 6, 2025, 11:05 p.m. UTC

TLE line 0: 0 SL-8 DEB

TLE line 1: 1 21253U 91009BL 25249.96181534 .00000114 00000-0 12751-2 0 9995

TLE line 2: 2 21253 74.1124 57.2692 0147777 67.4496 58.4721 12.14605454529920

Live tracking on map

Real-time ground track for satellite SL-8 DEB.

In-orbit conjunctions

A list of the most updated potential collisions computed for object SL-8 DEB.

Target Orbit TCA Probability of collision Miss distance Type
MAGION 3 HEO 2025-02-01 08:04:02 0.0001054777 451.0 (m) PAYLOAD

Associated space launch

Military communications satellites

SL-8 DEB was lifted into orbit during the mission ‘Kosmos-3M | Strela-1M 353-360’, on board a Kosmos-3M space rocket.

The launch took place on Feb. 12, 1991, 2:44 a.m. from 133/3 (133L).

For more information about the launch, click the button.

Launch to space Kosmos-3M | Strela-1M 353-360
Kosmos-3M | Strela-1M 353-360

Agency: N/A

Status: Launch Successful

Launch date: Feb. 12, 1991, 2:44 a.m. UTC

Rocket: Kosmos-3M

Launch pad: 133/3 (133L)

Location: Plesetsk Cosmodrome, Russian Federation

...

Latest news about this satellite

There are no fresh news available about this satellite. Check back as we update our databases every day.


Newsletter sign-up

Weekly statistics, charts and insights to help you stay on top of the space industry.